EW9136 Weather Reports


Display with metric or nautical units.
time (UTC)temp
F
wind
direction
speed
MPH
gust
MPH
rain 1hr
in
rain 24hr
in
rain mn
in
humidity
%
barometer
mb
20260509121548 53 34 6.0 11.0 0.00 0.01 0.00 89 1020.3
20260509120046 53 42 7.0 11.0 0.00 0.01 0.00 89 1020.3
20260509114545 53 46 8.0 11.0 0.00 0.01 0.00 89 1020.3
20260509113045 53 47 7.0 12.0 0.00 0.01 0.00 89 1020.3
20260509111544 53 49 8.0 11.0 0.00 0.01 0.00 89 1020.4
20260509110044 53 15 6.0 10.0 0.00 0.01 0.00 89 1020.5
20260509104544 53 32 5.0 9.0 0.00 0.01 0.00 89 1020.6
20260509103050 54 75 5.0 9.0 0.00 0.01 0.00 89 1020.5
20260509101541 54 52 4.0 9.0 0.00 0.01 0.00 89 1020.5
20260509100039 54 62 7.0 11.0 0.00 0.01 0.00 90 1020.5
20260509094547 54 46 6.0 11.0 0.00 0.01 0.00 91 1020.3
20260509093039 54 58 6.0 9.0 0.00 0.01 0.00 90 1020.4
20260509091545 54 35 5.0 9.0 0.00 0.01 0.00 90 1020.3
20260509090039 54 30 3.0 5.0 0.00 0.01 0.00 91 1020.2
20260509084534 54 48 3.0 8.0 0.00 0.01 0.00 91 1020.2
20260509083031 54 48 3.0 7.0 0.00 0.01 0.00 90 1020.1
20260509081530 54 28 3.0 6.0 0.00 0.01 0.00 91 1019.9
20260509080027 53 38 4.0 7.0 0.00 0.01 0.00 92 1019.9
20260509074525 52 45 7.0 10.0 0.00 0.01 0.00 92 1019.9
20260509073033 52 38 7.0 10.0 0.00 0.01 0.00 93 1020.0
20260509071520 52 48 7.0 9.0 0.00 0.01 0.00 94 1020.0
20260509070020 51 68 5.0 8.0 0.00 0.01 0.00 94 1019.9
20260509064517 51 65 3.0 6.0 0.00 0.01 0.00 95 1019.9
20260509063026 50 48 3.0 6.0 0.00 0.01 0.00 95 1020.0
20260509061511 50 33 4.0 6.0 0.00 0.01 0.00 94 1019.9
20260509060015 50 37 3.0 5.0 0.00 0.01 0.00 94 1019.8
20260509054509 50 42 2.0 4.0 0.00 0.01 0.00 95 1019.9
20260509053006 49 53 3.0 6.0 0.00 0.01 0.00 95 1019.7
20260509051511 49 64 4.0 9.0 0.00 0.01 0.00 95 1019.7
20260509050004 49 75 2.0 8.0 0.00 0.01 0.00 95 1019.7
20260509044608 48 84 6.0 10.0 0.00 0.01 0.00 95 1019.7
20260509043101 47 77 1.0 6.0 0.00 0.01 0.00 95 1019.6
20260509041557 47 76 3.0 5.0 0.00 0.01 0.00 95 1019.7
20260509040108 47 146 0.0 3.0 0.00 0.01 0.00 95 1019.7
20260509034556 47 160 0.0 2.0 0.00 0.01 0.00 95 1019.7
20260509033121 47 160 0.0 0.0 0.00 0.01 0.00 95 1019.7
20260509031553 47 160 0.0 2.0 0.00 0.01 0.00 95 1019.7
20260509030053 47 160 0.0 0.0 0.00 0.01 0.00 95 1019.7
20260509024603 47 160 0.0 1.0 0.00 0.01 0.00 95 1019.6
20260509023052 47 160 0.0 5.0 0.00 0.01 0.00 95 1019.5
20260509021549 47 194 0.0 3.0 0.00 0.01 0.00 94 1019.5
20260509014548 47 221 0.0 2.0 0.00 0.01 0.00 94 1019.6
20260509013047 47 221 0.0 2.0 0.00 0.01 0.00 94 1019.5
20260509011549 48 234 1.0 2.0 0.00 0.01 0.00 94 1019.6
20260509010043 48 234 0.0 0.0 0.00 0.01 0.00 94 1019.7
20260509004543 48 234 0.0 0.0 0.00 0.01 0.00 94 1019.6
20260509003042 48 234 0.0 0.0 0.00 0.01 0.00 93 1019.7
20260509001539 48 234 0.0 2.0 0.00 0.01 0.00 93 1019.5
20260509000038 48 239 0.0 3.0 0.00 0.01 0.01 93 1019.5
20260508234537 49 223 2.0 6.0 0.00 0.01 0.01 93 1019.4
20260508233038 49 113 0.0 9.0 0.00 0.01 0.01 93 1019.3
20260508231536 49 130 2.0 10.0 0.00 0.01 0.01 93 1019.4
20260508230035 49 172 4.0 13.0 0.00 0.01 0.01 93 1019.1
20260508224547 48 166 7.0 12.0 0.00 0.01 0.01 93 1019.1
20260508223035 48 140 1.0 6.0 0.00 0.01 0.01 93 1019.3
20260508221534 48 25 1.0 6.0 0.00 0.01 0.01 93 1019.3
20260508220033 48 108 2.0 6.0 0.00 0.01 0.01 92 1019.4
20260508214537 49 115 2.0 10.0 0.00 0.01 0.01 92 1019.4
20260508213032 49 121 2.0 10.0 0.00 0.01 0.01 92 1019.2
20260508211532 50 146 5.0 11.0 0.00 0.01 0.01 91 1019.2
20260508210035 50 188 3.0 12.0 0.00 0.01 0.01 91 1019.2
20260508204536 50 136 5.0 11.0 0.00 0.01 0.01 90 1019.2
20260508203033 50 152 0.0 5.0 0.00 0.01 0.01 90 1019.1
20260508201526 51 122 2.0 6.0 0.00 0.01 0.01 88 1019.0
20260508200026 51 312 2.0 10.0 0.00 0.01 0.01 85 1018.9
20260508194524 51 160 3.0 14.0 0.00 0.01 0.01 82 1018.7
20260508193023 51 130 9.0 16.0 0.00 0.01 0.01 82 1018.4
20260508191521 52 150 8.0 17.0 0.00 0.01 0.01 81 1018.4
20260508190020 52 150 7.0 15.0 0.00 0.01 0.01 78 1018.2
20260508184522 52 142 8.0 14.0 0.00 0.01 0.01 78 1018.1
20260508183017 53 142 8.0 16.0 0.00 0.01 0.01 77 1017.9
20260508181516 53 131 7.0 15.0 0.00 0.01 0.01 77 1017.8
20260508180015 54 127 7.0 15.0 0.00 0.01 0.01 74 1017.8
20260508174514 54 152 9.0 15.0 0.00 0.01 0.01 72 1017.7
20260508173012 55 167 10.0 17.0 0.00 0.01 0.01 70 1017.6
20260508171510 55 114 11.0 16.0 0.00 0.01 0.01 69 1017.4
20260508170011 56 165 5.0 17.0 0.00 0.01 0.01 69 1017.3
20260508164510 56 194 6.0 12.0 0.00 0.01 0.01 69 1017.3
20260508163015 57 164 10.0 15.0 0.00 0.01 0.01 73 1017.3
20260508161508 57 117 6.0 13.0 0.00 0.01 0.01 73 1017.3
20260508160007 57 126 10.0 17.0 0.00 0.01 0.01 74 1017.3
20260508154508 58 132 6.0 14.0 0.00 0.01 0.01 74 1017.3
20260508153016 59 142 9.0 15.0 0.00 0.01 0.01 74 1017.2
20260508151506 59 123 8.0 16.0 0.00 0.01 0.01 76 1017.2
20260508150006 58 110 8.0 12.0 0.00 0.01 0.01 77 1017.2
20260508144508 59 134 6.0 14.0 0.00 0.01 0.01 77 1017.2
20260508143005 59 151 8.0 15.0 0.01 0.01 0.01 77 1017.1
20260508141506 61 113 6.0 12.0 0.01 0.01 0.01 75 1017.2
20260508140006 63 189 6.0 10.0 0.01 0.01 0.01 66 1017.2
20260508134502 63 193 3.0 12.0 0.01 0.01 0.01 63 1017.2
20260508133105 63 223 6.0 11.0 0.00 0.00 0.00 67 1017.2
20260508131603 63 209 6.0 9.0 0.00 0.00 0.00 65 1017.2
20260508130058 62 144 6.0 10.0 0.00 0.00 0.00 66 1017.3
20260508124556 62 209 7.0 13.0 0.00 0.00 0.00 70 1017.3
20260508123053 61 165 7.0 11.0 0.00 0.00 0.00 74 1017.3